EN

Hourly Weather Labno-Ogorodniki

Today, 5 August, Thursday

Time Temperature Precipitation Wind Pressure Humidity
00:00 +14°C° 0 mm 1 mps 744 mmHg 95%
01:00 +13°C° 0 mm 1 mps 744 mmHg 95%
02:00 +13°C° 0 mm 1 mps 744 mmHg 96%
03:00 +13°C° 0 mm 1 mps 744 mmHg 96%
04:00 +12°C° 0 mm 1 mps 744 mmHg 97%
05:00 +12°C° 0 mm 1 mps 744 mmHg 97%
06:00 +13°C° 0 mm 1 mps 744 mmHg 94%
07:00 +15°C° 0 mm 2 mps 744 mmHg 91%
08:00 +16°C° 0 mm 2 mps 744 mmHg 88%
09:00 +17°C° 0 mm 2 mps 743 mmHg 81%
10:00 +19°C° 0 mm 2 mps 743 mmHg 74%
11:00 +20°C° 0 mm 2 mps 743 mmHg 67%
12:00 +20°C° 0 mm 2 mps 743 mmHg 64%
13:00 +21°C° 0 mm 2 mps 743 mmHg 61%
14:00 +22°C° 0 mm 3 mps 743 mmHg 58%
15:00 +21°C° 0 mm 3 mps 743 mmHg 63%
16:00 +21°C° 0 mm 3 mps 742 mmHg 68%
17:00 +20°C° 0 mm 3 mps 742 mmHg 72%
18:00 +19°C° 0.1 mm 3 mps 742 mmHg 77%
19:00 +18°C° 0.1 mm 3 mps 741 mmHg 81%
20:00 +17°C° 0.1 mm 3 mps 741 mmHg 86%
21:00 +17°C° 0 mm 4 mps 741 mmHg 85%
22:00 +15°C° 0 mm 5 mps 740 mmHg 84%
23:00 +15°C° 0 mm 6 mps 740 mmHg 83%

Tomorrow, 6 August, Friday

Time Temperature Precipitation Wind Pressure Humidity
00:00 +15°C° 0 mm 5 mps 740 mmHg 84%
01:00 +14°C° 0 mm 5 mps 739 mmHg 85%
02:00 +13°C° 0 mm 5 mps 739 mmHg 85%
03:00 +13°C° 1.2 mm 6 mps 738 mmHg 89%
04:00 +13°C° 1.2 mm 6 mps 737 mmHg 93%
05:00 +11°C° 1.2 mm 6 mps 736 mmHg 96%
06:00 +11°C° 4.8 mm 7 mps 736 mmHg 97%
07:00 +11°C° 4.8 mm 7 mps 735 mmHg 97%
08:00 +11°C° 4.8 mm 7 mps 734 mmHg 97%
09:00 +12°C° 2.1 mm 7 mps 734 mmHg 97%
10:00 +12°C° 2.1 mm 7 mps 734 mmHg 97%
11:00 +13°C° 2.1 mm 6 mps 734 mmHg 97%
12:00 +14°C° 0.4 mm 6 mps 733 mmHg 97%
13:00 +14°C° 0.4 mm 5 mps 733 mmHg 97%
14:00 +14°C° 0.4 mm 5 mps 733 mmHg 97%
15:00 +14°C° 0.4 mm 5 mps 733 mmHg 97%
16:00 +14°C° 0.4 mm 4 mps 733 mmHg 97%
17:00 +14°C° 0.4 mm 4 mps 733 mmHg 97%
18:00 +14°C° 0.4 mm 4 mps 733 mmHg 97%
19:00 +14°C° 0.4 mm 4 mps 733 mmHg 98%
20:00 +13°C° 0.4 mm 4 mps 733 mmHg 98%
21:00 +13°C° 0.3 mm 4 mps 733 mmHg 98%
22:00 +13°C° 0.3 mm 4 mps 734 mmHg 98%
23:00 +13°C° 0.3 mm 5 mps 734 mmHg 98%

Day after tomorrow, 7 August, Saturday

Time Temperature Precipitation Wind Pressure Humidity
00:00 +13°C° 0.7 mm 5 mps 734 mmHg 97%
01:00 +13°C° 0.7 mm 5 mps 734 mmHg 97%
02:00 +13°C° 0.7 mm 5 mps 735 mmHg 97%
03:00 +13°C° 0.6 mm 6 mps 735 mmHg 97%
04:00 +13°C° 0.6 mm 6 mps 735 mmHg 96%
05:00 +13°C° 0.6 mm 6 mps 736 mmHg 96%
06:00 +13°C° 0.2 mm 6 mps 736 mmHg 95%
07:00 +13°C° 0.2 mm 6 mps 737 mmHg 94%
08:00 +13°C° 0.2 mm 6 mps 737 mmHg 93%
09:00 +14°C° 0.4 mm 6 mps 738 mmHg 91%
10:00 +14°C° 0.4 mm 6 mps 738 mmHg 90%
11:00 +15°C° 0.4 mm 6 mps 738 mmHg 88%
12:00 +16°C° 0.2 mm 5 mps 739 mmHg 84%
13:00 +17°C° 0.2 mm 5 mps 739 mmHg 80%
14:00 +19°C° 0.2 mm 4 mps 740 mmHg 76%
15:00 +20°C° 0 mm 4 mps 740 mmHg 71%
16:00 +21°C° 0 mm 4 mps 740 mmHg 66%
17:00 +22°C° 0 mm 4 mps 740 mmHg 62%
18:00 +21°C° 0 mm 3 mps 740 mmHg 68%
19:00 +19°C° 0 mm 2 mps 741 mmHg 74%
20:00 +18°C° 0 mm 1 mps 741 mmHg 79%
21:00 +18°C° 0 mm 1 mps 741 mmHg 81%
22:00 +16°C° 0 mm 1 mps 742 mmHg 83%
23:00 +16°C° 0 mm 2 mps 742 mmHg 85%

8 August, Sunday

Time Temperature Precipitation Wind Pressure Humidity
00:00 +16°C° 0 mm 2 mps 742 mmHg 87%
01:00 +15°C° 0 mm 2 mps 742 mmHg 89%
02:00 +15°C° 0 mm 2 mps 742 mmHg 91%
03:00 +15°C° 0 mm 2 mps 742 mmHg 91%
04:00 +15°C° 0 mm 2 mps 743 mmHg 91%
05:00 +15°C° 0 mm 2 mps 743 mmHg 91%
06:00 +16°C° 0 mm 2 mps 743 mmHg 86%
07:00 +18°C° 0 mm 3 mps 743 mmHg 80%
08:00 +20°C° 0 mm 3 mps 743 mmHg 75%
09:00 +21°C° 0 mm 4 mps 743 mmHg 72%
10:00 +22°C° 0 mm 5 mps 742 mmHg 68%
11:00 +25°C° 0 mm 5 mps 742 mmHg 64%
12:00 +26°C° 0 mm 6 mps 742 mmHg 65%
13:00 +26°C° 0 mm 6 mps 742 mmHg 65%
14:00 +27°C° 0 mm 6 mps 742 mmHg 65%
15:00 +27°C° 0.2 mm 6 mps 742 mmHg 66%
16:00 +27°C° 0.2 mm 5 mps 742 mmHg 67%
17:00 +27°C° 0.2 mm 5 mps 742 mmHg 68%
18:00 +25°C° 0.2 mm 5 mps 742 mmHg 74%
19:00 +22°C° 0.2 mm 4 mps 742 mmHg 80%
20:00 +21°C° 0.2 mm 4 mps 743 mmHg 86%
21:00 +19°C° 0 mm 3 mps 743 mmHg 88%
22:00 +18°C° 0 mm 3 mps 744 mmHg 91%
23:00 +17°C° 0 mm 2 mps 744 mmHg 93%

9 August, Monday

Time Temperature Precipitation Wind Pressure Humidity
00:00 +17°C° 0 mm 2 mps 744 mmHg 93%
01:00 +18°C° 0 mm 1 mps 744 mmHg 93%
02:00 +18°C° 0 mm 1 mps 745 mmHg 93%
03:00 +16°C° 0 mm 1 mps 744 mmHg 93%
04:00 +16°C° 0 mm 1 mps 744 mmHg 93%
05:00 +15°C° 0 mm 0 mps 744 mmHg 93%
06:00 +18°C° 0 mm 1 mps 745 mmHg 90%
07:00 +18°C° 0 mm 2 mps 745 mmHg 88%
08:00 +19°C° 0 mm 2 mps 745 mmHg 85%
09:00 +18°C° 0.2 mm 3 mps 745 mmHg 87%
10:00 +18°C° 0.2 mm 4 mps 746 mmHg 89%
11:00 +17°C° 0.2 mm 4 mps 746 mmHg 90%
12:00 +17°C° 0 mm 4 mps 746 mmHg 87%
13:00 +18°C° 0 mm 3 mps 747 mmHg 84%
14:00 +18°C° 0 mm 3 mps 747 mmHg 81%
15:00 +19°C° 0 mm 2 mps 747 mmHg 75%
16:00 +20°C° 0 mm 2 mps 747 mmHg 69%
17:00 +21°C° 0 mm 2 mps 747 mmHg 62%
18:00 +20°C° 0 mm 2 mps 747 mmHg 69%
19:00 +19°C° 0 mm 2 mps 748 mmHg 76%
20:00 +17°C° 0 mm 2 mps 748 mmHg 82%
21:00 +17°C° 0 mm 2 mps 748 mmHg 85%
22:00 +16°C° 0 mm 2 mps 748 mmHg 87%
23:00 +15°C° 0 mm 2 mps 748 mmHg 89%

10 August, Tuesday

Time Temperature Precipitation Wind Pressure Humidity
00:00 +15°C° 0 mm 1 mps 748 mmHg 90%
01:00 +15°C° 0 mm 1 mps 748 mmHg 90%
02:00 +15°C° 0 mm 1 mps 748 mmHg 90%
03:00 +15°C° 0 mm 1 mps 748 mmHg 90%
04:00 +14°C° 0 mm 1 mps 748 mmHg 90%
05:00 +14°C° 0 mm 1 mps 748 mmHg 89%
06:00 +16°C° 0 mm 1 mps 748 mmHg 85%
07:00 +18°C° 0 mm 1 mps 748 mmHg 81%
08:00 +19°C° 0 mm 1 mps 749 mmHg 76%
09:00 +20°C° 0.1 mm 1 mps 749 mmHg 72%
10:00 +20°C° 0.1 mm 2 mps 749 mmHg 68%
11:00 +21°C° 0.1 mm 2 mps 749 mmHg 63%
12:00 +23°C° 0.3 mm 2 mps 749 mmHg 59%
13:00 +24°C° 0.3 mm 2 mps 748 mmHg 56%
14:00 +24°C° 0.3 mm 2 mps 748 mmHg 52%
15:00 +24°C° 0.1 mm 2 mps 748 mmHg 56%
16:00 +23°C° 0.1 mm 2 mps 748 mmHg 60%
17:00 +23°C° 0.1 mm 2 mps 748 mmHg 64%
18:00 +20°C° 0.2 mm 2 mps 748 mmHg 69%
19:00 +19°C° 0.2 mm 2 mps 748 mmHg 74%
20:00 +18°C° 0.2 mm 1 mps 748 mmHg 80%
21:00 +18°C° 0 mm 1 mps 748 mmHg 79%
22:00 +16°C° 0 mm 1 mps 749 mmHg 78%
23:00 +15°C° 0 mm 0 mps 749 mmHg 78%
Show more